CW8284 Weather Reports


Display with metric or nautical units.
time (UTC)temp
F
wind
direction
speed
MPH
gust
MPH
rain 1hr
in
rain 24hr
in
rain mn
in
humidity
%
barometer
mb
20260831094619 64 292 0.0 0.0 0.00 0.00 0.00 1011.0
20260831094519 64 292 0.0 0.0 0.00 0.00 0.00 1010.9
20260831094419 64 292 0.0 0.0 0.00 0.00 0.00 1010.8
20260831094319 64 292 0.0 0.0 0.00 0.00 0.00 1010.8
20260831093919 64 292 0.0 0.0 0.00 0.00 0.00 1011.1
20260831093819 64 292 0.0 0.0 0.00 0.00 0.00 1011.0
20260831093419 64 292 0.0 0.0 0.00 0.00 0.00 1010.7
20260831093319 64 292 0.0 0.0 0.00 0.00 0.00 1010.7
20260831093218 65 292 0.0 0.0 0.00 0.00 0.00 1010.9
20260831093119 65 292 0.0 0.0 0.00 0.00 0.00 1010.9
20260831092118 65 157 0.0 0.0 0.00 0.00 0.00 1010.7
20260831090819 65 247 0.0 0.0 0.00 0.00 0.00 1010.8
20260831090719 65 247 0.0 0.0 0.00 0.00 0.00 1010.8
20260831090618 65 247 0.0 0.0 0.00 0.00 0.00 1010.8
20260831085619 65 270 0.0 0.0 0.00 0.00 0.00 1011.0
20260831085518 65 270 0.0 0.0 0.00 0.00 0.00 1010.9
20260831084818 66 315 0.0 0.0 0.00 0.00 0.00 1011.0
20260831084719 66 315 0.0 0.0 0.00 0.00 0.00 1010.8
20260831084619 66 315 0.0 0.0 0.00 0.00 0.00 1011.0
20260831084519 66 315 0.0 0.0 0.00 0.00 0.00 1011.1
20260831084119 66 292 0.0 0.0 0.00 0.00 0.00 1010.9
20260831084019 66 315 0.0 0.0 0.00 0.00 0.00 1010.9
20260831083919 66 315 0.0 0.0 0.00 0.00 0.00 1011.1
20260831083219 66 180 0.0 0.0 0.00 0.00 0.00 1010.7
20260831082819 66 202 0.0 0.0 0.00 0.00 0.00 1010.8
20260831081219 66 180 0.0 0.0 0.00 0.00 0.00 1011.0
20260831081119 66 180 0.0 0.0 0.00 0.00 0.00 1010.7
20260831081019 66 180 0.0 0.0 0.00 0.00 0.00 1010.8
20260831080318 67 180 0.0 0.0 0.00 0.00 0.00 1011.1
20260831075919 67 180 0.0 0.0 0.00 0.00 0.00 1011.2
20260831075818 67 180 0.0 0.0 0.00 0.00 0.00 1010.8
20260831075118 68 180 0.0 0.0 0.00 0.00 0.00 1011.3
20260831075019 68 180 0.0 0.0 0.00 0.00 0.00 1011.2
20260831074919 68 180 0.0 0.0 0.00 0.00 0.00 1010.8
20260831074819 68 180 0.0 0.0 0.00 0.00 0.00 1010.8
20260831074719 68 180 0.0 0.0 0.00 0.00 0.00 1010.9
20260831074619 68 180 0.0 0.0 0.00 0.00 0.00 1010.8
20260831074218 68 202 0.0 0.0 0.00 0.00 0.00 1011.0
20260831074119 68 202 0.0 0.0 0.00 0.00 0.00 1011.1
20260831073718 68 180 0.0 0.0 0.00 0.00 0.00 1010.9
20260831073618 68 180 0.0 0.0 0.00 0.00 0.00 1010.7
20260831073218 68 225 2.0 2.0 0.00 0.00 0.00 1010.9
20260831073118 68 202 1.0 2.0 0.00 0.00 0.00 1011.0
20260831073018 68 225 0.0 0.0 0.00 0.00 0.00 1010.8
20260831072618 68 247 0.0 0.0 0.00 0.00 0.00 1010.8
20260831072218 68 157 0.0 0.0 0.00 0.00 0.00 1010.9
20260831070918 69 180 0.0 0.0 0.00 0.00 0.00 1010.6
20260831070519 69 247 1.0 1.0 0.00 0.00 0.00 1010.5
20260831070419 69 225 0.0 1.0 0.00 0.00 0.00 1010.5
20260831070018 69 247 0.0 0.0 0.00 0.00 0.00 1010.5
20260831065619 69 180 0.0 1.0 0.00 0.00 0.00 1010.4
20260831064919 69 180 0.0 0.0 0.00 0.00 0.00 1010.3
20260831064219 69 225 1.0 2.0 0.00 0.00 0.00 1010.4
20260831063819 69 180 0.0 0.0 0.00 0.00 0.00 1010.5
20260831062219 70 202 0.0 0.0 0.00 0.00 0.00 1010.6
20260831061219 70 180 0.0 0.0 0.00 0.00 0.00 1010.8
20260831061119 70 180 1.0 1.0 0.00 0.00 0.00 1010.8
20260831060719 70 225 0.0 1.0 0.00 0.00 0.00 1010.6
20260831060319 70 112 0.0 1.0 0.00 0.00 0.00 1010.6
20260831055619 70 157 0.0 0.0 0.00 0.00 0.00 1010.6
20260831054919 71 202 0.0 0.0 0.00 0.00 0.00 1010.6
20260831054219 72 180 0.0 0.0 0.00 0.00 0.00 1010.6
20260831053819 72 157 1.0 2.0 0.00 0.00 0.00 1010.6
20260831053719 72 180 0.0 0.0 0.00 0.00 0.00 1010.6
20260831052719 72 202 2.0 3.0 0.00 0.00 0.00 1010.8
20260831052019 72 270 2.0 2.0 0.00 0.00 0.00 1010.7
20260831051019 73 270 0.0 0.0 0.00 0.00 0.00 1010.8
20260831050019 73 180 0.0 0.0 0.00 0.00 0.00 1010.5
20260831045918 73 180 0.0 0.0 0.00 0.00 0.00 1010.5
20260831045819 73 180 1.0 3.0 0.00 0.00 0.00 1010.4
20260831045418 73 247 0.0 0.0 0.00 0.00 0.00 1010.5
20260831045019 73 180 1.0 2.0 0.00 0.00 0.00 1010.6
20260831044919 73 202 1.0 2.0 0.00 0.00 0.00 1010.5
20260831044518 73 225 0.0 0.0 0.00 0.00 0.00 1010.6
20260831044118 74 180 0.0 0.0 0.00 0.00 0.00 1010.1
20260831044018 74 157 1.0 2.0 0.00 0.00 0.00 1010.4
20260831043919 74 180 0.0 2.0 0.00 0.00 0.00 1010.3
20260831043819 74 202 0.0 0.0 0.00 0.00 0.00 1010.2
20260831043419 74 180 0.0 0.0 0.00 0.00 0.00 1010.3
20260831043018 74 202 0.0 0.0 0.00 0.00 0.00 1010.3
20260831042019 74 225 1.0 3.0 0.00 0.00 0.00 1010.1
20260831041919 74 202 2.0 3.0 0.00 0.00 0.00 1010.1
20260831041819 74 202 2.0 3.0 0.00 0.00 0.00 1010.2
20260831041419 75 202 0.0 0.0 0.00 0.00 0.00 1010.0
20260831041019 75 225 2.0 3.0 0.00 0.00 0.00 1010.1
20260831040619 75 225 3.0 4.0 0.00 0.00 0.00 1009.9
20260831035019 75 202 1.0 2.0 0.00 0.00 0.00 1009.7
20260831034919 75 225 2.0 3.0 0.00 0.00 0.00 1009.7
20260831034818 75 157 1.0 2.0 0.00 0.00 0.00 1009.7
20260831033219 76 225 2.0 3.0 0.00 0.00 0.00 1009.4
20260831033118 76 180 2.0 3.0 0.00 0.00 0.00 1009.5
20260831032719 77 202 1.0 2.0 0.00 0.00 0.00 1009.3
20260831032619 77 225 1.0 3.0 0.00 0.00 0.00 1009.6
20260831032519 77 225 1.0 3.0 0.00 0.00 0.00 1009.3
20260831031518 77 225 4.0 5.0 0.00 0.00 0.00 1009.2
20260831030519 77 270 3.0 4.0 0.00 0.00 0.00 1009.1
20260831030419 77 225 3.0 3.0 0.00 0.00 0.00 1009.2
20260831030019 78 225 4.0 5.0 0.00 0.00 0.00 1009.3
20260831025919 78 247 4.0 5.0 0.00 0.00 0.00 1009.3
20260831025819 78 270 2.0 4.0 0.00 0.00 0.00 1009.3
20260831025718 78 225 2.0 4.0 0.00 0.00 0.00 1009.3
20260831025318 78 202 3.0 3.0 0.00 0.00 0.00 1009.1
20260831025218 78 225 3.0 4.0 0.00 0.00 0.00 1009.2
20260831024818 78 247 4.0 6.0 0.00 0.00 0.00 1009.0
20260831024719 78 225 4.0 6.0 0.00 0.00 0.00 1009.1
20260831024618 78 225 4.0 6.0 0.00 0.00 0.00 1009.0
20260831023619 79 157 3.0 5.0 0.00 0.00 0.00 1008.8
20260831023518 79 202 3.0 5.0 0.00 0.00 0.00 1008.9
20260831023118 79 202 1.0 2.0 0.00 0.00 0.00 1009.0
20260831022419 79 202 3.0 4.0 0.00 0.00 0.00 1009.2
20260831022319 79 225 2.0 4.0 0.00 0.00 0.00 1008.8
20260831021919 80 180 3.0 6.0 0.00 0.00 0.00 1009.1
20260831021819 80 202 1.0 3.0 0.00 0.00 0.00 1008.9
20260831021718 80 202 3.0 4.0 0.00 0.00 0.00 1009.0
20260831020119 81 225 3.0 5.0 0.00 0.00 0.00 1008.9
20260831020019 81 180 2.0 4.0 0.00 0.00 0.00 1008.7
20260831015919 81 225 4.0 6.0 0.00 0.00 0.00 1008.7
20260831015519 82 225 3.0 5.0 0.00 0.00 0.00 1008.8
20260831015419 82 202 3.0 7.0 0.00 0.00 0.00 1008.7
20260831014419 83 225 3.0 6.0 0.00 0.00 0.00 1008.6
20260831013719 84 202 4.0 6.0 0.00 0.00 0.00 1008.4
20260831013019 84 225 5.0 7.0 0.00 0.00 0.00 1008.4
20260831012619 85 225 4.0 6.0 0.00 0.00 0.00 1008.6
20260831011618 85 270 3.0 7.0 0.00 0.00 0.00 1008.5
20260831011518 86 270 2.0 5.0 0.00 0.00 0.00 1008.8
20260831010519 87 247 4.0 6.0 0.00 0.00 0.00 1008.7
20260831010419 87 202 3.0 4.0 0.00 0.00 0.00 1008.8
20260831005718 87 225 4.0 6.0 0.00 0.00 0.00 1008.6
20260831005619 87 270 4.0 6.0 0.00 0.00 0.00 1008.6
20260831004919 87 202 1.0 1.0 0.00 0.00 0.00 1008.7
20260831004519 88 225 4.0 7.0 0.00 0.00 0.00 1008.7
20260831004119 88 202 3.0 6.0 0.00 0.00 0.00 1008.8
20260831004019 88 180 6.0 8.0 0.00 0.00 0.00 1008.6
20260831003618 88 180 2.0 2.0 0.00 0.00 0.00 1008.5
20260831002919 89 202 4.0 8.0 0.00 0.00 0.00 1008.6
20260831002519 89 180 2.0 2.0 0.00 0.00 0.00 1008.3
20260831002419 89 135 2.0 5.0 0.00 0.00 0.00 1008.5
20260831002018 90 157 1.0 2.0 0.00 0.00 0.00 1008.4
20260831001918 90 180 2.0 2.0 0.00 0.00 0.00 1008.5
20260831001519 90 225 2.0 3.0 0.00 0.00 0.00 1008.4
20260831001119 90 225 2.0 8.0 0.00 0.00 0.00 1008.5
20260831000719 90 292 3.0 4.0 0.00 0.00 0.00 1008.4
20260830235719 91 225 4.0 6.0 0.00 0.00 0.00 1008.5
20260830234419 92 180 3.0 7.0 0.00 0.00 0.00 1008.3
20260830233119 94 225 5.0 9.0 0.00 0.00 0.00 1008.4
20260830232719 94 180 1.0 2.0 0.00 0.00 0.00 1008.5
20260830232018 93 180 2.0 4.0 0.00 0.00 0.00 1008.6
20260830230718 95 180 4.0 8.0 0.00 0.00 0.00 1008.5
20260830230318 96 315 2.0 2.0 0.00 0.00 0.00 1008.6
20260830225619 98 247 1.0 1.0 0.00 0.00 0.00 1008.7
20260830225519 98 337 3.0 9.0 0.00 0.00 0.00 1008.7
20260830225419 98 202 4.0 6.0 0.00 0.00 0.00 1008.6
20260830225318 99 225 2.0 4.0 0.00 0.00 0.00 1008.6
20260830225219 99 180 2.0 4.0 0.00 0.00 0.00 1008.6
20260830224218 98 180 2.0 4.0 0.00 0.00 0.00 1008.8
20260830222918 96 225 5.0 7.0 0.00 0.00 0.00 1009.0
20260830222219 97 225 6.0 10.0 0.00 0.00 0.00 1008.9
20260830222119 97 225 5.0 7.0 0.00 0.00 0.00 1009.0
20260830222019 97 247 8.0 11.0 0.00 0.00 0.00 1009.1
20260830221619 98 225 4.0 7.0 0.00 0.00 0.00 1008.8
20260830221518 97 225 3.0 5.0 0.00 0.00 0.00 1009.0
20260830221419 97 315 1.0 2.0 0.00 0.00 0.00 1009.1
20260830221319 97 157 2.0 3.0 0.00 0.00 0.00 1009.1
20260830221219 97 180 5.0 7.0 0.00 0.00 0.00 1008.8
20260830220518 97 202 4.0 8.0 0.00 0.00 0.00 1009.3
20260830215518 98 135 2.0 3.0 0.00 0.00 0.00 1009.2
20260830215419 98 135 2.0 4.0 0.00 0.00 0.00 1009.5
20260830214719 99 202 3.0 6.0 0.00 0.00 0.00 1009.4
20260830214618 99 202 1.0 3.0 0.00 0.00 0.00 1009.3
20260830213918 98 180 2.0 5.0 0.00 0.00 0.00 1009.5
20260830213819 98 202 2.0 5.0 0.00 0.00 0.00 1009.5
20260830212818 98 225 6.0 8.0 0.00 0.00 0.00 1009.6
20260830212418 98 157 1.0 1.0 0.00 0.00 0.00 1009.7
20260830211119 97 180 3.0 6.0 0.00 0.00 0.00 1009.7
20260830211019 97 157 0.0 1.0 0.00 0.00 0.00 1009.8
20260830210919 97 180 1.0 2.0 0.00 0.00 0.00 1009.7
20260830210819 97 180 3.0 5.0 0.00 0.00 0.00 1009.7
20260830210719 96 315 2.0 3.0 0.00 0.00 0.00 1009.8
20260830210618 96 225 1.0 3.0 0.00 0.00 0.00 1009.8
20260830205918 96 225 1.0 3.0 0.00 0.00 0.00 1009.8
20260830205818 96 202 4.0 6.0 0.00 0.00 0.00 1009.8
20260830205719 96 315 1.0 2.0 0.00 0.00 0.00 1009.7
20260830205019 97 225 3.0 6.0 0.00 0.00 0.00 1010.0
20260830204918 97 157 2.0 6.0 0.00 0.00 0.00 1010.1
20260830204519 96 135 2.0 3.0 0.00 0.00 0.00 1009.9
20260830204419 96 112 3.0 4.0 0.00 0.00 0.00 1010.0
20260830204319 95 112 1.0 2.0 0.00 0.00 0.00 1010.0
20260830203918 96 202 2.0 4.0 0.00 0.00 0.00 1009.9
20260830203519 96 225 1.0 4.0 0.00 0.00 0.00 1010.0
20260830203119 96 315 1.0 2.0 0.00 0.00 0.00 1009.9
20260830202718 95 135 1.0 2.0 0.00 0.00 0.00 1010.0
20260830202619 95 180 1.0 1.0 0.00 0.00 0.00 1009.9
20260830202218 94 180 3.0 7.0 0.00 0.00 0.00 1009.9
20260830202118 94 337 1.0 2.0 0.00 0.00 0.00 1010.3
20260830202018 94 180 1.0 2.0 0.00 0.00 0.00 1010.2
20260830201619 93 135 1.0 1.0 0.00 0.00 0.00 1010.1
20260830200918 94 157 1.0 4.0 0.00 0.00 0.00 1010.1
20260830200818 94 337 4.0 6.0 0.00 0.00 0.00 1010.2
20260830200719 93 225 5.0 8.0 0.00 0.00 0.00 1010.2
20260830200318 94 292 2.0 3.0 0.00 0.00 0.00 1010.3
20260830195919 93 292 1.0 3.0 0.00 0.00 0.00 1009.9
20260830194619 93 157 1.0 2.0 0.00 0.00 0.00 1010.3
20260830194519 93 202 1.0 2.0 0.00 0.00 0.00 1010.2
20260830194118 94 225 4.0 5.0 0.00 0.00 0.00 1010.2
20260830193418 94 225 4.0 10.0 0.00 0.00 0.00 1010.3
20260830193018 92 225 1.0 2.0 0.00 0.00 0.00 1010.4
20260830192919 91 315 1.0 3.0 0.00 0.00 0.00 1010.2
20260830192819 91 315 2.0 3.0 0.00 0.00 0.00 1010.3
20260830192718 91 225 2.0 3.0 0.00 0.00 0.00 1010.4
20260830192118 92 225 5.0 8.0 0.00 0.00 0.00 1010.5
20260830192018 92 157 3.0 5.0 0.00 0.00 0.00 1010.5
20260830191919 92 225 2.0 5.0 0.00 0.00 0.00 1010.5
20260830191818 92 180 3.0 6.0 0.00 0.00 0.00 1010.8
20260830191118 90 225 1.0 2.0 0.00 0.00 0.00 1010.6
20260830191018 90 247 3.0 5.0 0.00 0.00 0.00 1010.6
20260830190919 90 225 3.0 6.0 0.00 0.00 0.00 1010.6
20260830190819 90 225 2.0 5.0 0.00 0.00 0.00 1010.6
20260830190718 90 225 1.0 3.0 0.00 0.00 0.00 1010.6
20260830190618 90 225 4.0 5.0 0.00 0.00 0.00 1010.6
20260830190519 90 225 3.0 5.0 0.00 0.00 0.00 1010.6
20260830190118 91 135 1.0 2.0 0.00 0.00 0.00 1010.5
20260830185718 92 135 1.0 2.0 0.00 0.00 0.00 1010.6
20260830185019 90 157 2.0 3.0 0.00 0.00 0.00 1010.6
20260830184918 90 157 2.0 3.0 0.00 0.00 0.00 1010.4
20260830184818 90 180 3.0 4.0 0.00 0.00 0.00 1010.4
20260830184719 90 202 4.0 7.0 0.00 0.00 0.00 1010.5
20260830184619 90 225 1.0 3.0 0.00 0.00 0.00 1010.6
20260830184019 89 292 3.0 4.0 0.00 0.00 0.00 1010.6
20260830183918 89 292 2.0 3.0 0.00 0.00 0.00 1010.7
20260830183818 89 292 3.0 3.0 0.00 0.00 0.00 1010.3
20260830183718 89 337 2.0 3.0 0.00 0.00 0.00 1010.8
20260830183318 89 225 3.0 4.0 0.00 0.00 0.00 1010.6
20260830183218 89 225 4.0 6.0 0.00 0.00 0.00 1010.5
20260830182918 89 315 1.0 3.0 0.00 0.00 0.00 1010.5
20260830182819 88 157 2.0 3.0 0.00 0.00 0.00 1010.7
20260830182719 88 180 1.0 2.0 0.00 0.00 0.00 1010.8
20260830182618 88 157 1.0 2.0 0.00 0.00 0.00 1010.6
20260830182019 90 202 1.0 2.0 0.00 0.00 0.00 1010.7
20260830181418 89 337 3.0 5.0 0.00 0.00 0.00 1011.1
20260830180518 88 180 1.0 2.0 0.00 0.00 0.00 1011.0
20260830180419 88 157 1.0 2.0 0.00 0.00 0.00 1011.0
20260830175118 88 180 1.0 1.0 0.00 0.00 0.00 1010.7
20260830175018 88 157 1.0 3.0 0.00 0.00 0.00 1010.8
20260830174918 88 337 2.0 3.0 0.00 0.00 0.00 1010.8
20260830174819 88 337 2.0 3.0 0.00 0.00 0.00 1010.8
20260830174719 88 270 3.0 5.0 0.00 0.00 0.00 1010.7
20260830174118 87 292 1.0 2.0 0.00 0.00 0.00 1010.8
20260830174019 87 315 2.0 2.0 0.00 0.00 0.00 1010.7
20260830173619 87 157 1.0 2.0 0.00 0.00 0.00 1010.6
20260830173518 87 180 1.0 1.0 0.00 0.00 0.00 1010.7
20260830173118 87 157 0.0 2.0 0.00 0.00 0.00 1010.6
20260830173019 86 157 0.0 1.0 0.00 0.00 0.00 1010.6
20260830172919 86 202 2.0 4.0 0.00 0.00 0.00 1010.7
20260830172819 86 225 2.0 3.0 0.00 0.00 0.00 1010.6
20260830172719 86 270 2.0 3.0 0.00 0.00 0.00 1010.8
20260830172619 86 270 2.0 3.0 0.00 0.00 0.00 1011.0
20260830172318 85 270 1.0 2.0 0.00 0.00 0.00 1010.8
20260830172218 85 270 3.0 5.0 0.00 0.00 0.00 1010.9
20260830172118 85 225 3.0 5.0 0.00 0.00 0.00 1010.9
20260830172018 85 202 2.0 3.0 0.00 0.00 0.00 1010.8
20260830171918 85 292 1.0 2.0 0.00 0.00 0.00 1011.0
20260830171819 86 247 2.0 3.0 0.00 0.00 0.00 1010.8
20260830171118 86 315 0.0 1.0 0.00 0.00 0.00 1010.7
20260830171018 86 202 1.0 2.0 0.00 0.00 0.00 1011.0
20260830170019 84 112 2.0 4.0 0.00 0.00 0.00 1010.7
20260830165619 85 202 1.0 3.0 0.00 0.00 0.00 1010.8
20260830165319 85 225 1.0 2.0 0.00 0.00 0.00 1010.9
20260830164319 85 247 2.0 4.0 0.00 0.00 0.00 1010.9
20260830163719 85 292 1.0 1.0 0.00 0.00 0.00 1010.8
20260830163319 84 247 0.0 1.0 0.00 0.00 0.00 1011.1
20260830163218 83 157 1.0 1.0 0.00 0.00 0.00 1010.9
20260830163119 83 337 0.0 1.0 0.00 0.00 0.00 1010.9
20260830163018 82 157 0.0 1.0 0.00 0.00 0.00 1010.8
20260830162618 81 247 1.0 3.0 0.00 0.00 0.00 1010.7
20260830161919 81 247 3.0 5.0 0.00 0.00 0.00 1010.7
20260830161819 81 225 2.0 4.0 0.00 0.00 0.00 1010.8
20260830161418 82 22 1.0 1.0 0.00 0.00 0.00 1010.6
20260830161019 81 157 1.0 2.0 0.00 0.00 0.00 1010.8
20260830160619 80 202 0.0 1.0 0.00 0.00 0.00 1010.8
20260830160519 80 0 0.0 1.0 0.00 0.00 0.00 1010.8
20260830160119 78 225 0.0 0.0 0.00 0.00 0.00 1010.8
20260830155718 78 247 0.0 1.0 0.00 0.00 0.00 1010.8
20260830155619 78 315 1.0 2.0 0.00 0.00 0.00 1011.0
20260830155219 78 247 3.0 4.0 0.00 0.00 0.00 1010.9
20260830155119 78 225 2.0 3.0 0.00 0.00 0.00 1011.0
20260830155019 79 225 2.0 3.0 0.00 0.00 0.00 1011.1
20260830154919 79 225 2.0 4.0 0.00 0.00 0.00 1010.8
20260830154819 79 202 1.0 2.0 0.00 0.00 0.00 1010.9
20260830154418 80 135 1.0 2.0 0.00 0.00 0.00 1011.0
20260830154019 80 225 1.0 2.0 0.00 0.00 0.00 1011.0
20260830153619 79 112 0.0 0.0 0.00 0.00 0.00 1010.8
20260830153519 78 202 0.0 0.0 0.00 0.00 0.00 1011.0
20260830153419 77 112 0.0 0.0 0.00 0.00 0.00 1011.0
20260830153318 77 135 0.0 1.0 0.00 0.00 0.00 1011.0
20260830153220 76 225 0.0 0.0 0.00 0.00 0.00 1010.8
20260830152519 76 225 0.0 0.0 0.00 0.00 0.00 1011.0
20260830152420 76 247 0.0 0.0 0.00 0.00 0.00 1011.0
20260830151120 77 180 2.0 2.0 0.00 0.00 0.00 1010.9
20260830151019 78 180 2.0 2.0 0.00 0.00 0.00 1011.0
20260830150319 77 225 2.0 2.0 0.00 0.00 0.00 1011.2
20260830150219 76 202 0.0 1.0 0.00 0.00 0.00 1011.0
20260830150120 76 135 0.0 0.0 0.00 0.00 0.00 1010.9
20260830144519 78 135 0.0 0.0 0.00 0.00 0.00 1011.0
20260830143218 75 337 0.0 0.0 0.00 0.00 0.00 1011.0
20260830142818 73 22 0.0 0.0 0.00 0.00 0.00 1010.9
20260830142718 72 22 0.0 0.0 0.00 0.00 0.00 1010.9
20260830142018 67 22 0.0 0.0 0.00 0.00 0.00 1011.0
20260830141919 67 22 0.0 0.0 0.00 0.00 0.00 1011.0
20260830141819 66 22 0.0 0.0 0.00 0.00 0.00 1011.0
20260830141719 66 22 0.0 0.0 0.00 0.00 0.00 1010.9
20260830141319 66 22 0.0 0.0 0.00 0.00 0.00 1010.9
20260830140618 66 22 0.0 0.0 0.00 0.00 0.00 1010.7
20260830140518 66 22 0.0 0.0 0.00 0.00 0.00 1010.9
20260830140119 66 22 0.0 0.0 0.00 0.00 0.00 1010.8
20260830135118 65 22 0.0 0.0 0.00 0.00 0.00 1010.6
20260830135018 65 22 0.0 0.0 0.00 0.00 0.00 1010.5
20260830134919 65 22 0.0 0.0 0.00 0.00 0.00 1010.5
20260830133919 65 22 0.0 0.0 0.00 0.00 0.00 1010.4
20260830133519 65 22 0.0 0.0 0.00 0.00 0.00 1010.3
20260830130718 65 22 0.0 0.0 0.00 0.00 0.00 1010.3
20260830130318 65 337 0.0 0.0 0.00 0.00 0.00 1010.3
20260830125918 65 315 0.0 0.0 0.00 0.00 0.00 1010.3
20260830125819 65 315 0.0 0.0 0.00 0.00 0.00 1010.1
20260830125719 65 157 0.0 0.0 0.00 0.00 0.00 1010.4
20260830125318 65 157 0.0 0.0 0.00 0.00 0.00 1010.2
20260830124919 65 157 0.0 0.0 0.00 0.00 0.00 1010.0
20260830124819 65 157 0.0 0.0 0.00 0.00 0.00 1010.2
20260830124419 65 157 0.0 0.0 0.00 0.00 0.00 1010.2
20260830124019 65 157 0.0 0.0 0.00 0.00 0.00 1010.1
20260830123919 65 157 0.0 0.0 0.00 0.00 0.00 1010.1
20260830123819 65 157 0.0 0.0 0.00 0.00 0.00 1009.9
20260830122819 65 157 0.0 0.0 0.00 0.00 0.00 1009.9
20260830122419 66 157 0.0 0.0 0.00 0.00 0.00 1009.7
20260830122019 66 157 0.0 0.0 0.00 0.00 0.00 1009.6
20260830121619 66 157 0.0 0.0 0.00 0.00 0.00 1009.7
20260830120918 66 157 0.0 0.0 0.00 0.00 0.00 1009.6
20260830120518 67 202 0.0 0.0 0.00 0.00 0.00 1009.8
20260830115219 67 292 0.0 0.0 0.00 0.00 0.00 1009.8
20260830114819 67 292 0.0 0.0 0.00 0.00 0.00 1009.7
20260830114719 68 292 0.0 0.0 0.00 0.00 0.00 1009.6
20260830114619 68 292 0.0 0.0 0.00 0.00 0.00 1009.6
20260830114519 68 292 0.0 0.0 0.00 0.00 0.00 1009.7
20260830114418 68 292 0.0 0.0 0.00 0.00 0.00 1009.6
20260830114319 68 270 0.0 0.0 0.00 0.00 0.00 1009.9
20260830114219 68 247 0.0 0.0 0.00 0.00 0.00 1009.7
20260830114119 68 292 0.0 0.0 0.00 0.00 0.00 1009.7
20260830114019 68 292 0.0 0.0 0.00 0.00 0.00 1009.7
20260830113918 68 270 0.0 0.0 0.00 0.00 0.00 1009.7
20260830113818 68 270 0.0 0.0 0.00 0.00 0.00 1010.0
20260830113719 68 270 0.0 0.0 0.00 0.00 0.00 1009.7
20260830113119 68 315 0.0 0.0 0.00 0.00 0.00 1009.5
20260830113019 68 157 0.0 0.0 0.00 0.00 0.00 1009.8
20260830112919 68 157 0.0 0.0 0.00 0.00 0.00 1009.8
20260830112519 68 157 0.0 0.0 0.00 0.00 0.00 1009.8
20260830111819 69 202 0.0 1.0 0.00 0.00 0.00 1009.7
20260830111719 69 202 0.0 1.0 0.00 0.00 0.00 1009.7
20260830110719 68 225 1.0 2.0 0.00 0.00 0.00 1009.4
20260830110319 68 247 1.0 2.0 0.00 0.00 0.00 1009.4
20260830105318 68 157 0.0 0.0 0.00 0.00 0.00 1009.4
20260830104618 68 247 0.0 0.0 0.00 0.00 0.00 1009.6
20260830104219 68 225 0.0 0.0 0.00 0.00 0.00 1009.6
20260830104118 68 202 0.0 0.0 0.00 0.00 0.00 1009.5
20260830104019 68 247 0.0 0.0 0.00 0.00 0.00 1009.6
20260830103919 68 225 0.0 0.0 0.00 0.00 0.00 1009.4
20260830103518 68 202 0.0 0.0 0.00 0.00 0.00 1009.4
20260830103419 68 180 0.0 0.0 0.00 0.00 0.00 1009.6
20260830103319 68 135 0.0 0.0 0.00 0.00 0.00 1009.6
20260830102918 68 202 0.0 0.0 0.00 0.00 0.00 1009.7
20260830102818 68 225 0.0 0.0 0.00 0.00 0.00 1009.6
20260830102419 68 202 0.0 0.0 0.00 0.00 0.00 1009.7
20260830102019 68 225 0.0 0.0 0.00 0.00 0.00 1009.4
20260830101919 68 180 0.0 0.0 0.00 0.00 0.00 1009.7
20260830101818 68 180 0.0 0.0 0.00 0.00 0.00 1009.6
20260830101719 68 180 0.0 0.0 0.00 0.00 0.00 1009.6
20260830101618 68 180 0.0 0.0 0.00 0.00 0.00 1009.5
20260830101518 68 180 0.0 0.0 0.00 0.00 0.00 1009.7
20260830101419 68 180 0.0 0.0 0.00 0.00 0.00 1009.5
20260830101018 68 180 0.0 0.0 0.00 0.00 0.00 1009.6
20260830100618 68 180 0.0 0.0 0.00 0.00 0.00 1009.7
20260830100218 68 247 0.0 0.0 0.00 0.00 0.00 1009.7
20260830095819 68 247 0.0 0.0 0.00 0.00 0.00 1009.8
20260830095419 68 247 0.0 0.0 0.00 0.00 0.00 1009.5
20260830095019 68 247 0.0 0.0 0.00 0.00 0.00 1009.7
20260830094919 68 247 0.0 0.0 0.00 0.00 0.00 1009.7